Vertical_Velocity
-1 -1 -1 -1 -1 -1 -1 -1 -1 -1 -0 -0 -0 -0 -0 -1 -1 -1 -1 -0 -0 -1 -1 -2 -2 -2 -3 -3 -2 -2 -3 -2 -2 -2 -1 -1 -1 -1 -1 -1 -1 -2 -2 -2 -1 -1 -1 -0 -0 -0 -1 -0 -0 -0 -0 -0 0 0 0 1 2 2 3 3 2 1 -0 -1 -1
-2 -2 -1 -1 -1 -1 -1 -2 -1 -1 -0 -0 -0 -0 -1 -1 -1 -2 -2 -1 -1 -1 -1 -2 -2 -3 -3 -3 -2 -2 -2 -2 -2 -2 -2 -2 -1 -1 -1 -1 -2 -2 -2 -2 -1 -1 -0 -0 -0 -0 -1 -1 -0 -1 -1 -1 0 0 -0 -1 -0 0 0 -0 -0 -0 -0 -1 -1
-2 -2 -1 -1 -1 -2 -2 -2 -1 -1 -0 -0 -0 -0 -1 -1 -1 -2 -2 -2 -1 -1 -1 -2 -2 -3 -3 -3 -2 -2 -2 -2 -2 -2 -2 -2 -2 -1 -1 -1 -2 -2 -2 -2 -1 -1 -0 -0 -0 -0 -0 -1 -1 -1 -1 -2 -0 0 0 -1 -1 -2 -2 -2 -2 -1 -1 -1 -1
-2 -2 -2 -2 -2 -2 -2 -2 -1 -1 -1 -0 -0 -1 -1 -1 -1 -1 -1 -1 -1 -1 -1 -2 -2 -2 -3 -2 -2 -2 -1 -1 -2 -2 -2 -2 -2 -1 -1 -0 -1 -2 -2 -2 -1 -1 -1 -0 -0 -0 -0 -1 -1 -1 -1 -1 -1 -0 -0 -0 -1 -1 -2 -3 -3 -2 -1 -1 -1
-2 -2 -2 -2 -2 -2 -2 -1 -1 -1 -1 -0 -0 -1 -1 -1 -1 -1 -1 -1 -1 -1 -1 -1 -2 -2 -2 -2 -2 -2 -1 -1 -1 -1 -2 -2 -1 -1 -0 -0 -0 -1 -2 -2 -2 -1 -1 -1 -1 -1 -1 -1 -1 -1 -1 -0 -0 -1 -1 -1 -1 -1 -1 -1 -2 -1 -1 -1 -2
-0 -0 -1 -2 -2 -2 -1 -1 -1 -1 -1 -0 -0 -1 -1 -1 -1 -1 -1 -1 -1 -1 -1 -1 -2 -2 -2 -2 -2 -2 -2 -2 -1 -1 -1 -1 -1 -1 -0 0 -0 -1 -1 -2 -2 -2 -2 -2 -2 -2 -2 -2 -2 -2 -1 -0 -0 -1 -2 -2 -1 -1 -0 -0 -1 -1 -0 -1 -1
1 2 1 -1 -1 -1 -1 -1 -1 -1 -1 -1 -0 -1 -1 -1 -1 -1 -1 -1 -1 -1 -1 -1 -1 -2 -2 -2 -3 -3 -2 -2 -2 -1 -1 -1 -2 -1 -1 -0 -0 -0 -1 -1 -2 -2 -3 -2 -2 -3 -4 -4 -3 -2 -2 -1 -1 -2 -2 -3 -2 -1 0 -0 -0 0 0 -0 -0
-0 2 3 -1 -1 -2 -2 -2 -2 -1 -1 -1 -1 -1 -1 -1 -1 -1 -1 -1 -1 -0 -1 -1 -1 -1 -2 -3 -3 -3 -2 -2 -2 -2 -1 -2 -2 -2 -2 -1 -1 -1 -1 -1 -2 -3 -3 -4 -3 -4 -4 -4 -3 -3 -3 -2 -2 -2 -3 -3 -3 -2 -0 0 0 1 1 1 1
-1 0 2 0 -2 -2 -2 -1 -1 -1 -1 -1 -1 -1 -1 -1 -1 -1 -1 -1 -0 -0 -0 -1 -1 -1 -2 -3 -3 -3 -3 -2 -2 -2 -2 -2 -2 -3 -3 -2 -2 -2 -2 -2 -2 -2 -3 -4 -4 -4 -4 -4 -4 -4 -4 -3 -3 -3 -4 -4 -4 -4 -3 -1 -0 -0 -0 0 0
-1 -1 -1 -1 -2 -2 -1 1 -0 -1 -2 -2 -2 -2 -1 -1 -1 -1 -1 -1 -1 -1 -1 -1 -1 -2 -2 -3 -3 -3 -3 -2 -1 -1 -1 -2 -2 -3 -3 -3 -2 -2 -2 -1 -1 -1 -2 -4 -5 -5 -5 -4 -4 -4 -5 -5 -4 -4 -5 -5 -5 -6 -6 -5 -3 -3 -2 -3 -2
-1 -1 -1 -2 -2 -2 -1 -0 -1 -1 -2 -2 -2 -2 -1 -1 -1 -1 -1 -0 -0 -1 -1 -1 -1 -2 -2 -2 -2 -3 -3 -2 -2 -1 -1 -1 -2 -2 -2 -2 -2 -2 -2 -1 -1 -1 -2 -4 -5 -6 -5 -5 -4 -5 -6 -7 -7 -8 -8 -8 -8 -8 -9 -9 -7 -6 -5 -5 -5
-0 -1 -1 -1 -1 -1 -1 -2 -2 -1 -1 -2 -2 -2 -1 -1 -1 -1 -1 -0 -0 -1 -1 -1 -1 -1 -2 -2 -2 -2 -2 -2 -2 -1 -1 -1 -1 -2 -2 -2 -2 -2 -2 -3 -3 -3 -3 -4 -5 -6 -5 -5 -4 -5 -6 -7 -8 -9 -9 -9 -9 -9 -9 -10 -9 -8 -7 -6 -5
-0 -0 -0 -0 -0 -1 -1 -1 -1 -1 -1 -1 -2 -1 -1 -1 -1 -1 -0 -0 -0 -1 -1 -1 -1 -1 -1 -1 -1 -1 -2 -2 -2 -1 -1 -1 -1 -1 -1 -1 -1 -1 -1 -3 -4 -4 -5 -5 -5 -5 -5 -5 -5 -5 -5 -6 -5 -5 -5 -5 -6 -7 -8 -9 -8 -8 -7 -7 -5
-0 -0 -0 -0 -0 -0 -0 -1 -1 -1 -1 -1 -1 -1 -1 -1 -1 -0 -0 -0 -0 -0 -0 -0 -1 -1 -0 -0 -0 -0 -1 -1 -1 -1 -1 -0 -0 -0 0 0 0 0 -0 -1 -2 -3 -4 -4 -5 -5 -4 -4 -4 -5 -5 -5 -3 -1 -0 -1 -3 -5 -6 -6 -6 -6 -5 -5 -5
-0 0 0 0 0 0 0 -0 -0 -0 -0 -1 -1 -1 -1 -1 -1 -0 -0 -0 -0 -0 -0 0 -0 -1 -1 0 1 0 -0 -1 -1 -1 -1 -1 -0 0 1 1 2 2 2 1 0 -0 -1 -2 -4 -4 -4 -3 -4 -5 -5 -5 -2 -0 -0 -2 -3 -4 -4 -4 -4 -4 -3 -3 -3
0 1 1 1 1 1 1 0 -0 -0 -0 -1 -1 -1 -1 -1 -1 -1 -1 -1 -1 -1 -0 0 -0 -1 -1 -1 0 0 -0 -1 -1 -1 -1 -1 -0 -0 0 1 2 2 2 2 2 1 0 -1 -2 -3 -3 -3 -4 -5 -5 -3 -1 -1 -2 -4 -4 -3 -3 -3 -3 -3 -3 -2 -1
1 1 1 1 1 1 1 0 -0 -0 -0 -1 -1 -1 -1 -1 -1 -1 -1 -1 -1 -1 -1 -1 -0 -1 -1 -2 -1 -0 -0 -1 -1 -1 -1 -0 -0 -0 -0 -0 -0 0 1 2 3 3 2 -1 -2 -3 -4 -4 -4 -3 -1 1 -0 -2 -3 -4 -3 -3 -3 -3 -3 -2 -2 -2 -2
1 1 1 1 1 1 0 -0 -0 -0 -0 -1 -1 -1 -1 -1 -1 -1 -1 -2 -1 -1 -1 -2 -1 -1 -1 -2 -2 -1 -0 -1 -1 -1 -0 0 1 1 1 1 0 -0 -0 1 4 4 3 0 -2 -4 -4 -3 -0 3 4 3 -0 -2 -2 -2 -2 -2 -2 -2 -2 -2 -2 -2 -2
1 1 1 1 1 0 -0 -0 -1 -1 -0 -0 -0 -1 -1 -1 -1 -1 -1 -2 -2 -2 -2 -2 -1 -1 -1 -2 -2 -2 -1 -0 -0 -0 0 1 2 3 5 7 6 4 2 4 5 5 3 1 -1 -3 -2 1 6 8 5 0 -2 -2 -1 -0 -0 -1 -1 -2 -2 -2 -2 -2 -2
1 1 1 1 0 -0 -0 -0 -0 -0 -0 0 0 0 0 -0 -0 -1 -1 -2 -3 -3 -3 -3 -2 -1 -1 -2 -2 -2 -2 -1 -0 0 1 2 3 6 9 12 10 8 7 8 8 6 4 1 -1 0 4 9 10 6 1 -3 -2 -1 -1 0 0 -0 -1 -1 -2 -2 -3 -3 -3
1 1 0 -0 -0 -0 -0 -0 0 0 0 1 1 1 1 -0 -0 -0 -1 -2 -2 -3 -3 -3 -2 -1 -0 -1 -1 -2 -2 -1 0 1 2 3 6 9 11 12 9 9 10 12 10 7 4 2 1 5 9 12 7 1 -4 -4 -2 -1 -0 0 0 -0 -1 -1 -1 -2 -2 -3 -3
0 0 -0 -0 -0 -0 0 1 1 1 1 1 1 1 0 -0 -0 -1 -1 -1 -1 -2 -2 -3 -2 -1 1 1 -0 -1 -1 -0 1 2 4 6 9 12 12 10 9 10 12 12 9 6 4 2 5 8 10 6 -1 -4 -4 -2 -0 -0 -0 -0 -0 -1 -1 -1 -1 -1 -2 -3 -3
-0 -0 0 1 1 1 1 1 1 1 1 1 0 0 -0 -1 -1 -1 -1 -1 -1 -1 -2 -3 -2 -1 0 2 2 1 0 0 1 3 5 8 12 14 14 11 11 11 12 10 7 5 4 3 7 8 6 -2 -6 -6 -3 0 1 1 0 -1 -2 -2 -2 -2 -2 -2 -2 -2 -2
-0 0 1 2 2 2 2 2 1 1 1 -0 -0 -1 -1 -1 -2 -1 -1 -1 -1 -1 -1 -2 -2 -1 -0 1 2 2 1 -0 -0 2 6 11 15 16 15 12 11 10 9 7 5 4 3 4 6 3 -1 -7 -6 -4 -0 2 2 1 0 -1 -2 -3 -3 -2 -2 -2 -2 -2 -2
0 1 1 1 1 1 1 1 1 0 -0 -1 -2 -1 -1 -1 -1 -1 -1 -0 -1 -1 -1 -2 -2 -1 -1 -0 -0 -1 -1 -1 1 7 13 17 17 15 12 10 9 8 7 5 3 2 2 3 3 -1 -5 -8 -5 -1 1 3 2 1 -0 -1 -1 -2 -3 -3 -3 -2 -1 -1 -1
1 1 1 0 0 0 -0 -0 -0 -0 -1 -2 -2 -2 -1 -1 -0 -1 -1 -3 -3 -2 -1 1 2 1 0 -2 -3 -3 -0 6 12 17 18 17 14 11 10 9 8 7 4 3 1 0 0 1 1 -1 -5 -6 -2 0 2 2 2 1 0 -1 -1 -1 -1 -2 -3 -2 -1 -1 -0
1 1 -0 -1 -0 -1 -0 -0 0 -0 -0 -1 -2 -2 -2 -1 -1 -3 -4 -5 -0 5 10 13 13 10 6 3 5 10 15 19 20 18 15 11 10 9 9 8 6 4 3 1 -1 -1 1 3 2 -1 -4 -4 -1 1 2 1 1 0 0 -0 -1 -1 -1 -1 -1 -1 -0 -1 -0
1 0 0 -0 -0 -0 -0 -0 1 1 0 -1 -2 -3 -4 -4 -5 -5 -3 3 16 25 30 28 25 21 18 17 20 22 23 20 17 14 11 9 8 7 6 4 3 2 1 -0 -1 1 3 5 3 -1 -4 -3 -1 1 2 2 0 0 0 0 -0 -1 -1 -0 0 1 1 1 -0
1 0 0 0 -0 -1 -1 -0 0 -0 -1 -3 -4 -5 -6 -5 -4 -2 2 11 26 35 39 37 31 28 25 24 22 20 18 16 15 14 11 8 5 2 1 1 1 1 -0 -0 1 4 5 6 2 -2 -3 -2 -1 -0 0 1 1 0 -0 -0 -0 -0 -0 -0 0 1 1 1 1
-0 -0 -0 -1 -1 -1 -2 -2 -1 -1 -1 -1 -2 -2 -2 -1 1 2 4 6 11 16 20 23 24 23 21 19 16 15 14 14 12 10 7 4 1 -0 -1 0 1 1 0 1 4 5 6 4 -0 -2 -2 -1 -1 -1 -0 0 1 1 0 -0 0 0 0 0 0 1 1 1 1
-1 -1 -1 -1 -1 -1 -1 -1 -1 0 3 6 6 6 5 4 4 4 3 2 0 -0 -0 2 4 5 5 4 5 5 4 4 3 3 2 1 0 -0 -0 1 1 1 1 2 4 6 5 2 -1 -2 -1 -1 -1 -1 -1 0 0 0 1 1 1 0 0 0 1 1 2 1 1
-3 -2 -2 -1 0 1 1 0 -0 1 2 5 6 6 5 4 3 3 3 2 2 1 -0 -1 -1 -1 -1 -1 -0 1 1 1 1 1 1 1 1 1 1 2 2 2 2 3 5 5 4 -0 -2 -1 -1 -1 -1 -1 -1 -0 0 1 1 2 1 1 0 -0 1 2 2 2 0
-3 -3 -2 -2 -1 -0 0 0 0 0 0 0 1 2 2 2 1 1 1 1 2 2 2 1 1 1 0 -0 1 1 1 1 1 1 1 2 2 1 1 1 1 1 2 5 6 5 2 -2 -1 -1 -0 -1 -2 -1 -1 -1 0 1 1 1 1 1 1 1 1 2 2 1 -0
-2 -2 -2 -2 -2 -1 -1 -0 -0 -0 0 0 0 1 1 1 1 0 0 0 1 2 2 2 2 2 2 2 2 2 2 2 2 2 2 2 2 2 1 0 0 2 4 6 5 3 0 -2 -1 -0 -1 -2 -2 -2 -1 -1 -0 1 1 2 1 1 1 1 1 1 1 0 -1
-1 -1 -2 -2 -2 -1 -1 -1 -1 -0 -0 -0 -0 -0 0 1 1 1 0 0 1 1 1 1 2 2 2 2 3 3 3 2 2 2 2 2 2 1 1 -0 0 2 5 6 4 1 -1 -1 -0 -0 -1 -2 -2 -2 -1 0 0 1 1 2 1 1 1 1 1 1 1 1 -0
0 0 -1 -1 -1 -1 -0 -0 -0 0 0 0 0 0 0 0 1 1 1 2 1 1 0 0 2 2 3 2 2 3 3 3 2 2 1 1 1 1 1 1 1 3 5 6 2 -0 -1 -0 -0 -1 -2 -2 -2 -1 -1 0 1 1 1 2 1 1 0 0 1 1 1 1 1
1 1 1 -0 -0 -0 0 1 1 1 1 1 1 1 1 1 1 1 2 3 2 1 -0 1 2 3 3 3 3 2 2 2 2 1 0 0 1 1 1 2 3 4 4 3 1 -0 -1 -0 -0 -1 -2 -2 -2 -1 -0 -0 1 1 2 1 1 0 0 0 0 2 2 2 2
2 2 2 2 1 1 1 2 2 1 1 0 1 1 1 2 2 2 2 3 2 1 1 2 3 3 2 3 3 2 2 2 2 1 1 -0 1 2 3 3 3 3 3 1 -0 -0 -0 -0 -1 -1 -1 -1 -1 -1 -0 1 1 1 1 1 -0 -0 1 2 1 1 2 4 3
3 3 3 3 3 2 2 2 2 1 1 1 1 0 1 1 2 2 2 2 2 2 2 3 3 2 2 2 2 2 2 1 1 1 1 1 1 2 4 4 3 2 1 0 -1 -1 -1 -0 -0 -0 -1 -1 -1 -1 -0 1 2 1 1 0 0 -0 0 2 3 1 0 1 4
4 4 4 4 3 3 2 2 2 1 1 1 1 0 0 1 2 2 2 2 2 2 2 3 2 2 1 2 2 2 1 1 1 1 1 2 2 3 3 3 2 1 -0 -1 -1 -1 -0 0 0 0 -0 -1 -1 -0 1 1 2 1 1 -0 0 0 -0 0 3 3 2 -1 1
4 4 4 3 2 2 2 2 1 1 1 1 1 0 1 2 2 2 2 2 1 1 1 2 2 1 1 1 1 1 2 2 1 1 2 2 2 2 2 2 1 -0 -1 -1 -1 -0 1 1 1 0 0 -0 -0 0 1 2 1 0 0 -0 -0 1 1 -0 -0 1 2 1 0
Height
5761 5761 5761 5761 5761 5761 5760 5760 5760 5760 5760 5759 5759 5758 5757 5757 5756 5756 5755 5754 5753 5752 5751 5750 5749 5748 5747 5746 5745 5744 5743 5742 5741 5740 5739 5738 5737 5736 5734 5732 5731 5729 5727 5726 5724 5722 5721 5719 5717 5715 5713 5712 5710 5707 5706 5704 5702 5700 5698 5697 5695 5693 5692 5690 5687 5685 5682 5680 5677
5759 5759 5759 5759 5759 5759 5759 5759 5758 5758 5758 5757 5757 5756 5755 5755 5754 5753 5752 5752 5751 5750 5749 5748 5747 5746 5745 5744 5743 5742 5741 5740 5739 5737 5737 5735 5734 5733 5731 5730 5728 5726 5724 5723 5721 5719 5718 5716 5714 5712 5711 5708 5707 5705 5703 5701 5699 5697 5695 5693 5692 5689 5687 5685 5683 5681 5678 5676 5674
5758 5758 5758 5758 5757 5757 5757 5757 5757 5756 5756 5755 5755 5754 5753 5752 5752 5751 5750 5749 5749 5748 5747 5746 5745 5744 5742 5742 5741 5740 5739 5737 5736 5735 5734 5732 5731 5730 5728 5727 5725 5723 5722 5720 5718 5717 5715 5713 5711 5709 5707 5706 5703 5702 5700 5697 5696 5694 5692 5690 5687 5685 5683 5681 5679 5677 5675 5672 5670
5757 5756 5756 5756 5756 5756 5756 5755 5755 5755 5754 5753 5753 5752 5751 5751 5750 5749 5748 5747 5747 5746 5744 5743 5742 5741 5740 5739 5738 5737 5736 5735 5734 5732 5731 5730 5728 5727 5726 5724 5722 5720 5718 5717 5715 5713 5712 5710 5708 5706 5704 5702 5700 5698 5696 5694 5692 5691 5688 5687 5684 5682 5680 5677 5675 5673 5671 5669 5667
5755 5755 5755 5754 5754 5754 5754 5753 5753 5752 5752 5752 5751 5750 5749 5748 5748 5747 5746 5745 5744 5743 5742 5741 5740 5739 5738 5737 5736 5735 5734 5732 5731 5730 5728 5727 5726 5724 5723 5721 5719 5717 5716 5714 5712 5710 5708 5707 5705 5703 5701 5699 5697 5695 5693 5691 5689 5687 5685 5683 5681 5678 5676 5674 5672 5670 5667 5665 5663
5753 5753 5753 5753 5752 5752 5752 5752 5751 5751 5750 5749 5749 5748 5747 5746 5746 5745 5744 5743 5742 5741 5740 5739 5737 5736 5735 5734 5733 5732 5731 5730 5728 5727 5726 5724 5722 5721 5720 5718 5717 5715 5713 5711 5709 5707 5705 5703 5702 5700 5698 5696 5694 5692 5690 5688 5686 5683 5682 5679 5677 5675 5673 5670 5668 5666 5664 5661 5659
5752 5752 5752 5751 5751 5751 5750 5750 5749 5748 5748 5747 5747 5746 5745 5744 5743 5742 5742 5741 5740 5739 5737 5737 5735 5734 5733 5732 5730 5729 5728 5727 5725 5724 5723 5721 5720 5718 5717 5715 5713 5712 5710 5708 5706 5704 5702 5700 5698 5696 5694 5692 5691 5689 5687 5684 5682 5680 5678 5676 5673 5672 5669 5667 5665 5662 5660 5658 5655
5750 5750 5750 5749 5749 5749 5748 5748 5747 5747 5746 5745 5745 5744 5743 5742 5741 5740 5739 5738 5737 5736 5735 5734 5733 5732 5731 5729 5728 5727 5725 5724 5723 5721 5720 5718 5717 5715 5713 5712 5710 5709 5707 5705 5703 5701 5699 5697 5695 5693 5691 5689 5687 5685 5683 5681 5678 5676 5674 5672 5669 5667 5666 5664 5661 5659 5657 5654 5652
5749 5748 5748 5747 5747 5747 5746 5746 5745 5744 5744 5743 5742 5742 5741 5740 5739 5738 5737 5736 5735 5734 5733 5732 5731 5729 5728 5727 5725 5724 5722 5721 5720 5718 5717 5715 5713 5712 5710 5709 5707 5706 5704 5702 5701 5698 5696 5694 5692 5690 5688 5686 5684 5682 5679 5677 5675 5672 5670 5667 5665 5663 5661 5660 5657 5655 5653 5651 5648
5747 5747 5747 5746 5745 5745 5744 5744 5743 5742 5742 5741 5740 5739 5738 5737 5737 5735 5734 5733 5732 5732 5730 5729 5728 5727 5726 5724 5723 5721 5720 5718 5717 5716 5714 5712 5711 5709 5707 5706 5705 5703 5701 5700 5698 5696 5694 5691 5689 5687 5684 5682 5680 5678 5675 5673 5670 5668 5665 5663 5661 5659 5657 5655 5653 5651 5649 5646 5644
5746 5745 5745 5744 5744 5743 5742 5742 5741 5741 5740 5739 5738 5737 5736 5735 5734 5733 5732 5731 5730 5729 5728 5727 5726 5724 5723 5722 5720 5719 5717 5716 5714 5713 5711 5710 5708 5707 5705 5703 5702 5700 5698 5697 5695 5693 5691 5688 5686 5683 5681 5679 5677 5674 5671 5668 5666 5663 5661 5659 5657 5654 5652 5650 5649 5647 5644 5642 5640
5744 5744 5743 5742 5742 5742 5741 5740 5739 5738 5737 5737 5736 5735 5734 5732 5732 5731 5730 5729 5728 5727 5725 5724 5723 5722 5720 5719 5717 5716 5714 5713 5712 5710 5709 5707 5705 5704 5702 5700 5699 5697 5695 5693 5691 5689 5687 5685 5682 5680 5677 5675 5673 5670 5667 5664 5662 5659 5657 5655 5653 5651 5648 5646 5644 5642 5640 5638 5636
5742 5742 5742 5741 5740 5740 5739 5738 5737 5737 5735 5734 5733 5732 5731 5730 5729 5728 5727 5726 5725 5724 5723 5722 5721 5719 5718 5716 5715 5713 5712 5710 5709 5707 5706 5704 5702 5701 5699 5697 5696 5694 5692 5690 5688 5686 5683 5681 5679 5677 5674 5672 5669 5667 5664 5662 5659 5657 5654 5652 5650 5647 5645 5643 5641 5638 5636 5634 5632
5741 5740 5740 5739 5738 5738 5737 5736 5735 5734 5733 5732 5731 5730 5729 5728 5727 5726 5725 5724 5723 5722 5721 5719 5718 5717 5715 5714 5712 5711 5709 5707 5706 5704 5703 5701 5700 5698 5696 5694 5693 5691 5689 5687 5685 5682 5680 5678 5675 5673 5671 5669 5666 5664 5661 5659 5657 5654 5652 5649 5647 5644 5642 5639 5637 5635 5632 5630 5628
5739 5738 5738 5737 5737 5736 5735 5734 5733 5732 5731 5730 5728 5727 5726 5725 5724 5723 5722 5721 5720 5719 5718 5717 5715 5714 5712 5711 5710 5708 5707 5705 5703 5702 5700 5698 5697 5695 5693 5691 5690 5688 5686 5684 5682 5679 5677 5675 5672 5670 5668 5665 5663 5661 5658 5656 5653 5651 5648 5646 5643 5641 5638 5636 5634 5631 5629 5627 5624
5737 5737 5736 5735 5734 5734 5733 5732 5731 5729 5728 5727 5726 5725 5724 5723 5722 5721 5720 5719 5717 5717 5715 5714 5713 5711 5710 5708 5707 5706 5704 5702 5701 5699 5697 5696 5694 5692 5690 5688 5686 5684 5683 5681 5679 5676 5674 5672 5669 5667 5665 5662 5660 5657 5655 5652 5650 5647 5645 5642 5640 5637 5635 5632 5630 5628 5625 5623 5621
5735 5734 5734 5733 5732 5731 5730 5729 5728 5727 5726 5725 5724 5722 5721 5720 5719 5718 5717 5716 5715 5714 5713 5712 5710 5709 5707 5706 5704 5703 5701 5700 5698 5696 5694 5692 5691 5688 5687 5684 5682 5680 5678 5677 5675 5673 5670 5668 5666 5664 5661 5659 5656 5654 5652 5649 5646 5644 5641 5638 5636 5634 5632 5629 5627 5624 5622 5619 5617
5733 5732 5732 5731 5730 5729 5728 5727 5726 5724 5723 5722 5721 5720 5719 5718 5717 5716 5714 5713 5712 5711 5710 5709 5707 5706 5705 5703 5702 5700 5699 5697 5695 5693 5692 5690 5688 5685 5683 5681 5679 5676 5674 5673 5671 5669 5667 5665 5663 5660 5658 5656 5653 5651 5649 5646 5642 5640 5637 5635 5632 5630 5627 5625 5622 5620 5618 5615 5612
5731 5730 5729 5728 5727 5727 5725 5724 5723 5722 5721 5720 5719 5718 5717 5715 5714 5713 5712 5711 5709 5708 5707 5706 5705 5703 5702 5701 5699 5697 5696 5694 5692 5691 5689 5687 5685 5682 5680 5678 5676 5674 5671 5670 5668 5666 5664 5662 5660 5657 5655 5653 5651 5648 5645 5642 5639 5636 5634 5632 5629 5627 5624 5621 5618 5616 5613 5611 5608
5729 5728 5727 5726 5725 5724 5723 5722 5721 5720 5718 5717 5716 5715 5714 5713 5712 5711 5709 5708 5707 5705 5704 5703 5702 5701 5699 5698 5696 5695 5693 5692 5690 5688 5686 5684 5682 5680 5678 5677 5674 5671 5669 5668 5665 5663 5661 5659 5657 5655 5653 5650 5647 5644 5640 5637 5635 5633 5631 5628 5626 5623 5620 5617 5615 5612 5609 5606 5603
5726 5725 5724 5723 5722 5721 5720 5719 5718 5717 5716 5715 5714 5713 5712 5710 5709 5708 5707 5705 5704 5702 5701 5700 5698 5697 5696 5695 5693 5692 5691 5689 5687 5685 5683 5681 5679 5677 5676 5674 5671 5669 5667 5665 5662 5660 5658 5656 5655 5653 5650 5647 5643 5639 5636 5633 5631 5629 5627 5625 5622 5620 5617 5614 5611 5608 5605 5602 5599
5723 5722 5722 5721 5720 5719 5718 5717 5716 5715 5714 5712 5712 5710 5709 5708 5707 5705 5704 5702 5701 5699 5698 5696 5695 5694 5693 5692 5690 5689 5687 5686 5684 5682 5680 5678 5677 5675 5673 5671 5669 5667 5665 5662 5659 5657 5655 5653 5652 5650 5647 5643 5638 5634 5632 5630 5628 5626 5623 5621 5618 5616 5613 5610 5607 5604 5601 5598 5595
5721 5720 5719 5718 5717 5716 5715 5714 5713 5712 5711 5710 5709 5707 5706 5705 5704 5702 5701 5699 5698 5696 5694 5693 5691 5690 5689 5688 5687 5686 5685 5683 5681 5679 5677 5675 5674 5673 5671 5668 5666 5664 5662 5659 5656 5654 5652 5651 5649 5646 5642 5637 5634 5631 5629 5627 5624 5622 5620 5617 5614 5612 5609 5606 5603 5600 5597 5593 5590
5718 5717 5717 5716 5715 5714 5713 5712 5711 5710 5708 5707 5706 5705 5703 5702 5701 5700 5698 5697 5695 5693 5691 5690 5688 5687 5686 5685 5684 5683 5682 5680 5677 5675 5674 5673 5672 5670 5668 5665 5663 5661 5658 5655 5652 5651 5649 5648 5645 5642 5637 5633 5630 5628 5626 5624 5621 5619 5616 5613 5611 5607 5605 5602 5599 5596 5593 5590 5586
5716 5715 5714 5713 5712 5711 5710 5709 5708 5707 5706 5704 5703 5702 5701 5699 5698 5697 5696 5694 5692 5690 5688 5686 5685 5683 5682 5681 5680 5679 5677 5676 5674 5673 5672 5671 5669 5667 5664 5662 5660 5657 5654 5652 5649 5647 5646 5643 5641 5637 5632 5629 5627 5625 5623 5620 5618 5615 5612 5609 5607 5603 5601 5597 5595 5592 5589 5586 5583
5713 5712 5712 5711 5709 5708 5707 5706 5705 5704 5703 5702 5700 5699 5698 5697 5696 5694 5692 5691 5688 5686 5684 5683 5681 5680 5679 5678 5677 5675 5674 5673 5672 5672 5671 5669 5666 5663 5661 5659 5656 5653 5651 5648 5646 5644 5642 5639 5636 5632 5628 5626 5624 5622 5619 5617 5614 5612 5609 5606 5602 5600 5597 5594 5591 5587 5584 5581 5578
5711 5710 5709 5708 5707 5706 5705 5704 5702 5701 5700 5699 5697 5696 5695 5694 5693 5691 5689 5687 5685 5683 5682 5681 5680 5679 5677 5676 5675 5674 5673 5672 5671 5669 5667 5665 5663 5661 5658 5656 5653 5650 5647 5645 5643 5640 5638 5635 5632 5628 5624 5622 5620 5618 5616 5613 5611 5608 5605 5602 5599 5596 5593 5590 5587 5583 5580 5577 5574
5708 5707 5706 5705 5704 5703 5702 5701 5700 5699 5697 5696 5695 5693 5692 5691 5690 5688 5687 5686 5685 5684 5683 5682 5681 5680 5678 5676 5675 5673 5672 5670 5668 5666 5664 5662 5660 5658 5655 5652 5650 5647 5645 5642 5639 5637 5634 5631 5628 5624 5621 5619 5617 5615 5612 5610 5607 5604 5601 5598 5595 5592 5589 5586 5582 5580 5577 5573 5570
5706 5704 5703 5702 5701 5700 5699 5698 5697 5696 5694 5693 5692 5690 5689 5688 5687 5687 5686 5686 5686 5686 5685 5683 5682 5679 5677 5675 5673 5671 5669 5667 5665 5663 5661 5659 5657 5654 5652 5649 5646 5644 5641 5638 5636 5633 5630 5627 5623 5620 5617 5615 5613 5611 5608 5606 5603 5600 5597 5594 5591 5588 5585 5582 5578 5575 5572 5569 5566
5702 5702 5701 5699 5698 5697 5696 5695 5694 5693 5692 5690 5689 5688 5687 5687 5686 5686 5685 5685 5684 5684 5682 5681 5678 5677 5675 5672 5670 5668 5666 5664 5662 5659 5657 5655 5653 5650 5648 5645 5643 5640 5637 5635 5632 5629 5627 5623 5619 5616 5613 5611 5609 5607 5604 5602 5599 5596 5593 5590 5587 5584 5581 5577 5574 5571 5568 5564 5561
5699 5698 5697 5697 5695 5694 5693 5692 5691 5690 5689 5688 5687 5687 5686 5685 5684 5683 5682 5682 5681 5679 5678 5676 5674 5673 5671 5669 5667 5665 5663 5661 5658 5656 5654 5652 5649 5647 5644 5642 5639 5636 5633 5631 5628 5625 5622 5619 5615 5612 5610 5607 5605 5603 5600 5598 5595 5592 5589 5586 5583 5580 5576 5573 5570 5567 5564 5560 5557
5697 5696 5695 5694 5693 5692 5691 5690 5689 5688 5687 5686 5685 5685 5684 5682 5681 5680 5679 5678 5677 5676 5674 5672 5671 5669 5667 5665 5663 5661 5659 5657 5655 5652 5650 5648 5645 5643 5640 5638 5635 5632 5629 5627 5624 5621 5618 5614 5611 5609 5606 5604 5601 5599 5597 5594 5591 5588 5585 5582 5579 5576 5572 5569 5566 5562 5559 5556 5552
5694 5693 5692 5691 5691 5690 5689 5688 5687 5686 5685 5684 5683 5682 5681 5679 5678 5677 5676 5674 5673 5672 5670 5669 5667 5665 5663 5661 5659 5657 5655 5653 5651 5649 5646 5644 5642 5639 5636 5633 5631 5628 5626 5623 5620 5617 5614 5610 5607 5605 5602 5600 5597 5595 5592 5590 5587 5584 5581 5578 5575 5572 5568 5565 5562 5558 5555 5551 5548
5691 5690 5690 5689 5688 5687 5686 5685 5684 5683 5682 5681 5680 5679 5677 5676 5675 5673 5672 5671 5669 5668 5666 5665 5663 5661 5659 5657 5655 5653 5651 5649 5647 5645 5642 5640 5637 5635 5632 5629 5627 5624 5622 5619 5616 5613 5610 5607 5604 5602 5599 5596 5593 5591 5588 5586 5583 5580 5577 5574 5571 5567 5564 5561 5557 5554 5551 5547 5543
5689 5688 5687 5686 5685 5685 5684 5682 5682 5680 5679 5678 5677 5676 5674 5673 5672 5670 5668 5667 5665 5664 5662 5660 5658 5657 5655 5653 5651 5649 5647 5645 5642 5640 5638 5636 5633 5630 5627 5625 5622 5620 5618 5615 5612 5609 5606 5603 5600 5597 5595 5592 5589 5587 5584 5582 5579 5576 5573 5570 5567 5563 5560 5557 5553 5550 5546 5543 5539
5687 5686 5685 5684 5683 5682 5681 5680 5679 5678 5677 5675 5674 5672 5671 5670 5668 5667 5665 5663 5662 5660 5658 5656 5654 5653 5651 5649 5647 5645 5643 5641 5638 5636 5634 5632 5629 5626 5623 5621 5618 5616 5614 5611 5608 5604 5602 5599 5597 5594 5591 5588 5585 5582 5580 5577 5575 5572 5569 5566 5562 5559 5556 5552 5549 5545 5542 5538 5535
5685 5683 5682 5682 5681 5680 5678 5677 5676 5675 5674 5672 5671 5669 5668 5666 5665 5663 5661 5660 5658 5656 5654 5652 5651 5649 5647 5645 5643 5641 5638 5637 5634 5632 5629 5627 5625 5622 5620 5617 5614 5612 5610 5607 5603 5601 5598 5595 5592 5589 5587 5584 5581 5578 5576 5573 5570 5567 5565 5561 5558 5554 5551 5548 5545 5541 5538 5534 5531
5682 5681 5680 5679 5678 5677 5676 5675 5673 5672 5670 5669 5667 5666 5664 5663 5661 5659 5657 5656 5654 5652 5650 5649 5647 5645 5643 5641 5638 5637 5634 5632 5630 5627 5625 5622 5620 5618 5616 5613 5610 5608 5605 5602 5599 5597 5594 5591 5588 5585 5582 5580 5577 5574 5572 5569 5566 5563 5560 5557 5553 5550 5547 5543 5540 5537 5534 5530 5527
5680 5679 5678 5677 5676 5674 5673 5672 5670 5669 5667 5666 5664 5662 5661 5659 5657 5656 5654 5652 5650 5648 5647 5645 5643 5641 5638 5637 5634 5632 5630 5628 5626 5623 5621 5619 5616 5614 5612 5609 5607 5604 5601 5598 5596 5593 5590 5587 5584 5581 5578 5576 5573 5570 5567 5565 5562 5558 5555 5552 5549 5546 5542 5539 5536 5533 5530 5526 5522
5677 5676 5675 5674 5672 5671 5670 5668 5667 5665 5664 5662 5660 5659 5657 5655 5654 5652 5650 5648 5646 5644 5642 5641 5638 5636 5634 5632 5630 5628 5626 5624 5622 5619 5617 5615 5612 5610 5607 5605 5602 5599 5597 5594 5592 5589 5586 5583 5580 5577 5574 5572 5569 5566 5563 5560 5557 5554 5551 5547 5544 5541 5538 5535 5532 5529 5526 5522 5519
5675 5673 5672 5671 5669 5668 5667 5665 5663 5662 5660 5658 5657 5655 5653 5652 5650 5648 5646 5644 5642 5640 5638 5636 5634 5632 5630 5628 5626 5624 5622 5620 5617 5615 5613 5611 5608 5606 5603 5601 5598 5595 5593 5590 5587 5585 5582 5579 5576 5573 5570 5567 5565 5561 5558 5556 5552 5549 5546 5543 5540 5537 5534 5531 5527 5524 5521 5518 5515